GOES 14 [B]

Last updated on July 6, 2021, 3:23 p.m. UTC

1 35491U 09033A   21186.62619632 -.00000085  00000-0  00000-0 0  9994
2 35491   0.3494 106.9325 0010996 102.5355 195.5712  1.00272124 43990
UTC
Height (km)
Latitude
Longitude
Inclination
Orbital Period
UTC large
Height (km)
Speed (km/s)
/
Latitude / Longitude
Inclination (degrees)
Orbital Period (minutes)
Azimuth
Elevation
Range (km)
Doppler Factor
iOS Compass Heading
iOS Angle